Lid_Strength_Index
4 3 3 3 2 2 2 2 2 2 2 2 2 3 3 3 3 5 8 6 5 3 2 5 6 6 5 7 8 6 9 10 9 10 9 8 7 7 7 7 8 8 6 3 2
3 3 3 3 3 2 2 2 2 2 2 2 2 3 3 4 6 8 3 3 2 1 4 6 8 7 7 7 7 8 10 9 7 7 8 7 6 7 8 7 7 6 5 3 2
3 3 4 3 3 3 3 2 2 2 2 2 2 3 3 4 8 8 3 1 1 1 4 5 7 7 7 8 8 8 11 8 7 6 6 7 6 6 8 8 7 7 7 3 3
4 4 4 4 4 3 3 2 2 2 2 3 3 3 4 5 10 5 -0 -1 0 2 4 6 7 9 8 8 7 9 8 7 6 5 5 6 5 6 6 7 5 5 7 7 4
4 4 4 4 4 4 3 3 2 2 2 3 3 3 6 9 8 4 1 -1 1 2 5 8 8 8 9 7 7 8 7 7 6 5 5 5 6 6 6 4 4 5 6 6 5
4 4 5 4 4 4 4 3 2 2 2 3 3 3 8 11 5 2 -0 0 1 3 5 7 7 6 7 7 7 6 6 6 6 5 5 6 6 6 6 5 5 6 6 6 5
4 4 4 4 4 4 4 4 4 3 2 2 2 4 9 9 3 2 1 1 1 3 6 6 6 6 5 6 5 5 7 6 6 6 6 5 8 7 5 5 5 6 6 6 5
4 4 4 4 4 4 4 4 4 3 2 2 2 5 10 5 4 3 2 2 1 3 6 5 5 6 6 4 6 7 7 9 6 6 5 6 10 6 4 6 6 7 8 7 5
4 5 5 5 4 4 4 4 4 3 3 2 5 7 10 3 5 3 3 4 3 3 5 5 6 7 7 7 8 8 10 9 8 5 6 7 8 6 6 7 8 7 7 6 5
4 4 5 5 4 4 4 4 4 4 4 3 5 8 7 7 4 5 3 3 6 5 6 7 7 9 8 9 12 11 10 9 9 7 6 7 8 6 6 7 8 7 6 7 7
4 4 4 4 4 4 5 6 7 8 7 8 8 7 6 4 4 5 5 5 6 7 10 8 10 11 9 8 8 8 9 9 8 7 7 8 8 7 7 6 8 8 8 8 7
4 5 4 4 5 5 5 8 7 7 9 6 6 6 4 4 6 6 6 7 8 10 9 10 11 8 8 7 8 8 9 9 8 7 8 8 8 7 7 8 8 9 8 7 7
5 5 5 4 4 6 7 7 5 5 9 7 6 6 5 5 6 7 6 6 7 10 10 10 9 7 8 8 9 9 9 9 9 8 7 8 9 9 8 8 8 9 9 7 6
6 5 5 4 6 7 7 5 5 5 11 9 8 6 4 4 7 4 5 6 7 9 8 8 6 7 8 9 8 10 7 8 9 9 11 8 12 9 8 9 8 7 8 6 5
6 5 4 4 6 8 6 5 5 6 18 8 8 3 4 6 6 7 5 6 7 8 8 9 8 8 9 8 7 9 7 8 8 9 10 10 11 9 8 9 7 6 5 5 4
5 5 4 5 5 5 4 5 5 12 18 10 7 8 8 7 7 7 8 5 4 8 8 8 6 7 7 7 7 7 8 9 9 9 13 10 11 11 9 8 7 6 6 6 5
5 4 4 4 6 3 4 6 12 17 8 11 9 8 8 9 8 8 10 10 10 12 11 9 8 7 6 8 7 8 9 13 14 14 14 11 11 10 8 7 7 6 6 6 5
4 4 4 4 2 2 4 8 16 11 11 7 9 9 10 9 8 9 10 11 8 9 10 12 13 8 6 8 9 9 9 12 16 16 13 11 12 11 7 7 6 6 5 5 6
4 4 5 4 3 2 6 13 13 11 9 10 9 12 11 9 9 9 9 10 9 8 11 12 12 8 7 7 7 10 11 9 13 13 13 12 11 9 7 7 6 6 6 6 6
5 6 6 2 3 3 9 12 10 7 8 9 13 12 14 11 10 10 10 8 9 7 6 9 13 9 8 7 7 8 8 13 12 17 17 14 14 12 10 9 7 7 7 6 6
5 8 3 2 2 6 12 10 9 6 7 9 12 13 12 12 10 10 10 9 7 8 7 8 10 11 9 11 11 10 11 11 11 13 16 16 13 9 9 8 8 7 6 6 6
6 10 3 1 8 8 11 9 7 7 6 7 9 11 12 11 12 12 12 10 7 7 10 9 11 13 12 9 8 9 11 11 15 16 14 14 14 7 7 7 7 7 7 7 6
8 7 2 2 12 11 8 9 7 8 8 8 10 9 9 12 14 11 11 8 7 8 9 9 13 17 15 11 9 11 11 11 11 12 14 15 14 8 8 7 7 7 7 7 7
6 10 6 5 6 9 11 10 10 7 8 8 9 8 10 11 10 12 11 9 7 8 7 7 12 15 16 14 11 13 12 11 12 15 14 13 12 10 8 8 8 7 7 7 7
5 8 7 10 9 9 9 10 11 11 8 8 10 10 11 13 12 12 10 9 8 8 9 8 13 12 12 11 11 12 12 12 12 12 14 12 12 10 8 7 7 7 7 7 7
7 7 6 8 7 9 9 10 11 10 10 10 11 10 10 12 12 13 11 10 10 9 10 9 13 11 13 11 11 12 11 11 11 11 11 11 11 7 7 6 7 7 7 7 7
3 3 6 7 8 9 10 10 10 9 8 8 9 10 11 10 9 9 8 8 8 9 10 11 12 12 14 12 12 13 11 10 10 9 9 12 9 7 8 7 7 7 7 7 8